Weather in Trutnevo

Russia / Pskov Oblast     58°37′05″N   27°56′26″E
temp.,
°C
wind,
m/s
gust,
m/s
humid.,
%
clouds,
%
prec.,
mm/h
press.,
hPa
HPBL,
m
22 april, thu
thu2200:00+7se236827 0.1 100278
03:00+4sw2674100 0.1 1003129
06:00+4sw266582 0.0 1003125
09:00+7sw486153 0.0 1004585
12:00+10sw474220 0.0 10061454
15:00+12sw4741100 0.0 10062036
18:00+8s3572100 0.3 1006938
21:00+6sse3886100 0.6 1005276
23 april, fri
fri2300:00+5s3686100 0.2 1004207
03:00+3ssw410885 0.3 1004393
06:00+1ssw49895 0.0 1004448
09:00+4s4773100 0.0 10041021
12:00+5s476499 0.1 10051209
15:00+6ssw5771100 0.9 10051303
18:00+6sw466889 0.7 10061093
21:00+2w379092 1.2 1007236
24 april, sat
sat2400:00+2wsw488598 0.1 1007581
03:00−1ssw489220 0.1 1007406
06:000s4891100 0.1 1006577
09:00+2ssw3697100 0.8 1005404
12:00+2wsw348893 0.7 1006637
15:00+3wsw3695100 1.3 1006445
18:00+3wsw3699100 0.5 1006320
21:00+2wsw3698100 0.8 1006387
25 april, sun
sun2500:00+1nw259891 0.3 1006333
03:000nw259291 0.3 1006204
06:00−1w239582 0.0 1006102
09:00+2w348279 0.0 1006521
12:00+4w3475100 0.0 1006867
15:00+5w457389 0.1 10071069
18:00+5w236837 0.2 1006887
21:00+2w259688 0.3 1007194
26 april, mon
mon2600:00+2w2383100 0.1 1007472
03:00+1wsw2393100 0.1 1007242
06:00+1wsw2398100 0.1 1007167
09:00+2wsw2387100 0.1 1007521
12:00+5w3367100 0.2 10071114
15:00+5w3461100 0.3 10071194
18:00+5wsw3461100 0.0 1007934
21:00+3wsw3788100 0.1 1006560